Temperature
7 7 7 7 7 6 6 6 6 6 6 6 6 6 6 6 6 6 6 6 5 5 5 5 5 5 5 5 4 4 4 3 3 4 4 4 4 4 4 4 4 4 4
7 7 7 7 6 6 6 6 6 6 6 6 5 5 5 5 5 5 5 5 5 5 5 4 4 4 4 4 4 4 3 3 3 3 3 3 3 3 3 3 3 3 3
6 6 6 6 6 6 6 6 5 5 5 5 5 5 5 5 5 5 5 5 4 4 4 4 4 4 4 3 3 3 3 3 3 2 2 3 3 2 2 2 2 2 2
6 6 6 6 6 6 5 5 5 5 5 5 5 5 5 4 4 4 4 4 4 4 4 3 3 3 3 3 3 2 2 2 2 2 2 2 2 2 2 1 2 2 2
6 6 6 5 5 5 5 5 5 4 4 4 4 4 4 4 4 3 3 3 3 3 3 3 3 3 2 2 2 2 2 2 2 2 2 1 1 1 1 1 1 1 1
5 5 5 5 5 4 4 4 4 4 4 4 4 4 3 3 3 3 2 2 2 2 2 2 2 2 2 2 1 1 1 1 1 1 1 1 1 1 1 0 -0 -0 -0
5 5 4 4 4 4 4 4 4 3 3 3 3 3 3 3 2 2 2 2 2 2 2 2 2 2 1 1 1 1 1 1 1 1 1 1 0 0 0 -0 -1 -1 -1
4 4 4 4 4 3 3 3 3 3 3 3 3 2 2 2 2 2 1 1 1 1 1 1 1 1 1 1 1 1 0 0 0 0 0 0 -0 -0 -1 -1 -1 -1 -1
4 3 3 3 3 3 3 3 2 2 2 2 2 2 2 1 1 1 1 1 1 1 1 1 1 1 1 0 0 0 0 0 -0 -0 -0 -0 -1 -1 -1 -1 -2 -2 -2
3 3 3 3 2 2 2 2 2 2 2 2 1 1 1 1 1 1 0 0 0 0 0 0 0 -0 -0 -0 -0 -0 -0 -0 -0 -1 -1 -1 -1 -1 -1 -2 -2 -3 -3
3 2 2 2 2 2 2 2 1 1 1 1 1 1 0 0 0 0 -0 -0 -0 -0 -1 -0 -0 -0 -1 -1 -1 -1 -1 -1 -1 -1 -1 -1 -1 -1 -2 -2 -2 -3 -3
2 2 2 2 1 1 1 1 1 1 0 0 0 -0 -0 -0 -0 -0 -1 -1 -1 -1 -1 -1 -1 -1 -1 -1 -1 -1 -1 -1 -2 -2 -2 -2 -2 -2 -2 -2 -3 -3 -3
1 1 1 1 1 1 0 0 0 -0 -0 -0 -1 -1 -1 -1 -1 -1 -1 -1 -1 -1 -1 -2 -2 -2 -2 -2 -2 -2 -2 -2 -2 -2 -2 -2 -2 -3 -3 -3 -3 -3 -3
1 1 1 0 0 0 -0 -0 -0 -0 -1 -1 -1 -1 -1 -1 -1 -1 -1 -1 -2 -2 -2 -2 -2 -2 -2 -2 -2 -2 -2 -2 -3 -3 -3 -3 -3 -3 -3 -4 -4 -4 -4
0 0 -0 -0 -0 -0 -0 -1 -1 -1 -1 -1 -1 -1 -1 -1 -1 -2 -2 -2 -2 -2 -2 -2 -2 -2 -2 -2 -3 -3 -3 -3 -3 -3 -4 -4 -4 -4 -4 -4 -4 -4 -5
-1 -1 -1 -1 -1 -1 -1 -1 -1 -1 -1 -2 -2 -2 -2 -2 -2 -2 -2 -3 -3 -3 -3 -3 -3 -3 -3 -3 -3 -3 -3 -3 -4 -4 -4 -4 -4 -4 -5 -5 -5 -5 -5
-1 -1 -2 -2 -2 -2 -2 -2 -2 -2 -2 -2 -2 -2 -2 -2 -3 -3 -3 -3 -3 -3 -3 -3 -3 -3 -3 -3 -3 -3 -4 -4 -4 -4 -4 -4 -5 -5 -5 -5 -5 -6 -6
-2 -2 -2 -2 -2 -2 -2 -2 -2 -2 -3 -2 -2 -3 -3 -3 -3 -3 -3 -4 -4 -4 -4 -4 -4 -4 -4 -4 -4 -4 -4 -4 -4 -4 -5 -5 -5 -5 -6 -6 -6 -6 -6
-2 -2 -2 -3 -3 -3 -3 -3 -3 -3 -3 -3 -3 -3 -3 -3 -3 -4 -4 -4 -4 -4 -4 -4 -4 -4 -4 -4 -4 -4 -4 -5 -5 -5 -5 -5 -5 -6 -6 -6 -6 -6 -6
-3 -3 -3 -3 -3 -3 -3 -4 -4 -4 -4 -4 -4 -3 -3 -4 -4 -4 -4 -4 -4 -4 -4 -4 -5 -5 -5 -5 -5 -5 -5 -5 -5 -5 -5 -5 -5 -6 -6 -6 -6 -6 -6
-3 -3 -3 -4 -4 -4 -4 -4 -4 -4 -4 -4 -4 -4 -4 -4 -4 -4 -4 -4 -4 -4 -5 -5 -5 -5 -5 -5 -5 -5 -5 -5 -5 -5 -6 -6 -6 -6 -6 -6 -7 -7 -7
-4 -4 -4 -4 -4 -4 -4 -4 -4 -4 -4 -4 -4 -4 -4 -4 -4 -4 -4 -5 -5 -5 -5 -5 -5 -5 -5 -5 -5 -5 -5 -5 -5 -6 -6 -6 -6 -6 -6 -7 -7 -7 -7
-4 -4 -4 -4 -5 -5 -5 -5 -5 -5 -5 -5 -5 -5 -5 -5 -4 -5 -5 -5 -5 -5 -5 -5 -5 -5 -5 -5 -5 -6 -6 -6 -6 -6 -6 -6 -6 -6 -7 -7 -7 -7 -7
-5 -5 -5 -5 -5 -5 -5 -5 -5 -5 -5 -5 -5 -5 -5 -5 -5 -5 -5 -5 -5 -5 -5 -5 -5 -5 -5 -5 -6 -6 -6 -6 -6 -6 -6 -6 -7 -7 -7 -7 -7 -7 -7
-5 -5 -5 -5 -5 -6 -6 -6 -6 -6 -6 -6 -6 -6 -6 -6 -6 -6 -5 -5 -5 -5 -5 -5 -5 -5 -6 -6 -6 -6 -6 -6 -6 -6 -6 -7 -7 -7 -7 -7 -7 -7 -7
-5 -6 -6 -6 -6 -6 -6 -6 -6 -6 -6 -6 -6 -6 -6 -6 -6 -6 -6 -6 -6 -6 -6 -6 -6 -6 -6 -6 -6 -6 -6 -6 -6 -6 -7 -7 -7 -7 -7 -7 -7 -7 -7
Wind_Speed
5 4 4 4 4 3 3 4 4 3 3 4 4 3 3 3 3 3 3 2 2 2 2 3 3 3 2 2 2 2 3 3 6 5 3 3 3 4 6 7 7 7 8
4 4 3 3 3 3 3 3 3 4 4 4 4 4 4 3 3 4 4 3 4 4 4 4 4 3 3 3 3 4 4 4 5 6 5 3 4 3 4 4 6 7 7
3 4 3 3 4 4 4 4 4 4 4 3 4 4 4 4 4 4 4 4 4 5 5 5 5 4 5 4 4 4 4 4 4 5 5 4 3 3 3 4 4 4 6
3 3 3 4 4 4 4 4 4 4 4 4 4 4 4 4 4 4 4 4 5 5 5 6 6 6 6 6 5 5 4 4 4 5 5 4 4 3 2 3 4 3 4
3 3 3 3 3 3 3 3 3 4 4 4 4 4 4 4 4 5 5 5 5 5 5 6 6 7 9 7 6 5 5 4 4 4 5 4 4 3 3 3 4 5 4
3 3 3 2 2 3 3 3 3 3 3 3 4 4 4 4 6 7 6 5 5 5 6 6 6 7 9 11 11 10 8 6 6 5 5 6 6 5 4 4 4 4 5
3 3 3 3 3 3 3 3 3 4 3 3 4 4 5 6 8 8 8 5 5 6 6 6 6 6 7 6 8 10 10 12 10 7 7 8 6 6 5 5 5 5 6
3 3 3 3 3 3 3 3 4 3 3 4 4 4 5 6 8 8 8 5 6 6 6 7 7 7 6 6 6 6 6 7 9 7 7 7 7 6 6 6 6 5 5
3 4 4 4 4 4 4 4 4 3 4 4 4 5 6 7 9 9 8 4 5 6 6 6 7 7 10 10 7 7 7 6 8 10 10 9 10 10 7 3 3 4 6
5 5 4 4 5 5 6 5 4 4 5 5 5 5 6 7 9 10 9 4 5 5 5 6 9 9 11 10 7 6 8 7 5 5 6 6 6 7 8 5 5 5 5
4 3 3 4 4 5 5 4 4 4 4 4 5 5 6 7 9 10 9 5 5 5 5 5 5 10 11 11 10 7 9 7 5 5 4 4 4 4 4 5 5 5 6
3 3 4 4 4 3 4 4 4 4 4 5 5 5 5 6 7 9 11 10 8 6 6 5 6 10 11 11 9 9 11 8 3 3 4 4 4 4 4 4 5 6 7
3 4 4 4 3 4 4 4 4 4 4 5 5 5 5 4 6 10 11 11 10 7 6 8 9 11 10 8 9 10 8 4 4 4 5 5 4 4 3 3 3 4 5
3 4 4 3 4 4 4 4 5 5 5 5 6 6 5 5 4 4 5 6 7 7 6 7 9 9 7 7 7 6 4 4 5 5 4 4 3 2 3 3 3 3 3
4 4 4 4 4 4 4 5 6 6 7 7 6 6 6 6 8 9 7 5 5 5 4 3 3 3 3 3 4 4 4 4 4 4 4 3 3 3 3 3 3 3 4
4 4 4 4 4 4 4 4 7 9 11 12 12 10 8 10 11 12 12 11 10 9 6 4 5 5 5 5 4 4 4 4 4 4 4 4 4 4 4 3 3 4 5
5 5 4 4 4 4 4 4 5 5 8 10 11 11 11 11 12 11 11 10 10 9 5 4 5 5 5 4 4 4 4 4 4 4 5 5 4 4 4 4 4 4 5
5 6 5 4 4 5 5 5 5 5 5 5 6 10 11 11 11 10 10 7 5 5 4 5 5 5 5 5 5 5 4 4 4 4 4 4 5 4 5 5 5 5 5
5 4 4 4 4 4 4 4 5 5 5 5 4 5 8 9 9 10 8 5 5 5 5 5 5 5 5 5 5 5 5 4 4 4 4 5 5 5 5 5 5 7 5
4 7 6 4 4 4 4 5 5 5 5 5 5 5 4 4 4 5 5 4 5 6 6 6 6 5 5 5 5 5 5 5 5 5 4 4 5 5 5 6 5 5 4
4 5 7 5 4 5 5 5 5 5 6 6 6 6 8 5 5 5 5 5 6 6 6 6 6 5 5 5 5 5 5 5 5 5 4 4 4 4 4 4 5 4 4
4 4 4 5 5 5 5 5 5 6 6 6 5 6 9 6 5 5 6 6 6 6 6 5 5 5 5 5 5 5 5 5 5 5 4 4 4 4 4 4 4 4 3
4 5 5 5 5 7 7 5 5 6 6 6 5 5 5 5 5 6 6 5 5 5 5 5 5 5 5 5 6 6 6 6 5 5 5 5 4 4 4 4 4 4 4
4 5 5 5 5 5 6 6 6 6 5 5 5 5 5 5 6 6 6 5 5 5 5 5 5 6 7 6 6 6 7 7 7 6 6 5 5 4 4 4 4 4 4
4 5 5 5 5 5 5 6 5 5 6 6 6 5 5 5 5 5 5 5 5 5 6 5 5 6 7 8 7 6 7 8 7 6 5 5 5 4 4 4 4 4 4
5 5 5 5 5 5 5 5 6 6 6 6 5 5 5 5 5 5 5 5 5 5 5 5 5 6 7 7 8 8 8 8 8 7 5 4 4 4 4 3 4 3 3
Wind_Direction
172 170 164 172 170 169 181 195 196 197 195 193 202 199 195 195 187 184 195 191 201 227 229 224 241 237 234 230 218 221 227 226 254 272 264 269 275 288 305 304 299 296 296
175 169 174 178 168 177 198 205 198 200 203 199 198 195 199 201 198 198 208 210 214 228 235 232 245 242 239 234 224 227 232 226 240 266 275 267 259 269 285 292 299 293 288
160 166 178 187 184 195 205 205 204 201 201 199 193 197 203 205 208 213 213 219 225 232 234 234 241 234 243 241 232 236 241 243 236 248 266 265 264 271 284 290 290 292 291
162 172 191 206 207 209 206 205 210 201 199 206 207 209 211 211 214 217 217 225 234 240 237 234 236 231 235 236 239 237 237 243 242 246 258 265 263 262 262 280 293 285 291
165 185 212 215 205 203 208 212 208 204 210 207 208 216 216 216 219 217 220 227 235 245 247 242 239 241 241 241 241 232 227 237 244 251 257 266 263 262 259 259 277 292 287
175 201 210 200 198 204 209 206 203 211 214 207 212 217 224 234 238 239 236 228 233 237 247 251 249 250 252 255 254 249 240 235 238 244 257 256 260 255 255 258 271 288 289
191 206 203 198 206 214 210 202 213 219 215 216 222 222 233 241 247 251 249 239 233 236 240 246 256 251 253 246 256 257 255 254 250 244 248 252 255 248 246 256 256 262 266
210 218 212 201 212 214 205 215 226 223 221 228 231 231 239 248 249 252 255 245 240 240 239 238 246 252 247 246 244 248 248 251 252 248 241 247 247 241 233 242 253 266 272
225 228 224 213 216 217 221 228 231 226 232 234 235 232 238 251 250 251 254 241 246 250 248 241 241 248 257 259 253 250 257 259 262 255 253 256 256 258 253 244 248 268 279
230 230 224 218 218 223 227 232 236 228 234 235 242 238 237 246 253 254 252 238 247 256 257 251 251 253 259 260 248 244 253 254 242 253 256 256 254 254 254 240 230 251 270
235 234 230 222 225 229 231 234 231 232 236 241 248 252 244 247 255 256 253 241 237 249 257 258 254 259 264 263 257 248 253 254 236 232 244 247 246 245 247 238 228 233 248
234 236 237 231 230 231 221 232 227 223 233 244 250 261 255 249 251 252 251 251 249 245 250 251 252 260 264 268 268 263 263 260 239 232 246 253 251 249 249 250 245 245 245
243 247 248 244 237 226 219 226 233 225 230 241 242 252 258 250 250 255 257 256 256 258 253 255 263 267 269 269 267 267 264 244 230 240 245 249 244 242 251 267 269 266 271
250 257 251 242 245 237 228 221 224 228 232 238 241 246 253 253 245 243 245 252 256 261 264 263 269 271 269 267 269 264 248 232 231 238 239 245 239 237 249 252 263 267 277
256 256 253 246 241 242 240 233 230 232 229 231 237 235 239 250 248 244 245 239 233 240 252 260 264 266 260 260 260 251 236 231 241 233 230 240 244 246 254 251 253 257 259
259 258 253 249 245 242 248 269 253 246 254 250 248 247 249 251 257 257 258 259 261 256 258 249 253 253 252 254 256 253 238 231 229 227 227 230 236 240 252 257 256 256 263
252 258 255 249 247 244 242 248 273 279 261 256 256 257 257 258 259 259 261 262 259 255 253 244 246 246 247 247 247 246 246 237 225 226 229 230 232 236 243 252 255 259 261
256 257 255 249 248 247 246 248 249 258 271 272 262 258 261 262 261 260 260 264 254 246 236 240 244 241 240 243 244 246 246 238 229 228 229 228 228 235 243 247 248 252 260
257 255 253 251 251 251 250 251 250 250 256 265 271 265 258 262 262 259 256 244 239 241 238 240 241 239 238 238 240 240 239 236 232 229 231 230 229 233 240 242 246 254 260
260 262 263 258 255 254 250 249 250 251 253 255 256 256 252 253 251 249 240 235 238 242 240 241 241 237 236 237 237 236 237 236 233 233 234 233 230 230 237 242 245 251 256
262 264 265 264 255 255 253 250 251 251 252 254 255 253 250 246 244 242 239 238 239 243 242 241 239 235 234 234 234 232 234 238 231 227 229 231 229 234 238 241 245 248 253
257 260 259 257 260 259 260 256 254 254 253 255 262 261 257 252 245 245 246 245 243 241 239 237 237 233 229 228 227 229 233 237 232 224 226 229 229 230 235 240 243 246 246
254 258 261 262 261 264 267 261 256 254 255 255 256 257 254 246 245 247 249 248 247 246 241 235 235 236 234 232 229 225 227 231 226 219 221 225 226 228 231 236 237 244 248
257 258 261 262 261 259 260 260 257 256 255 255 255 254 253 251 251 252 251 250 249 249 244 239 238 236 236 239 240 235 233 234 229 222 214 216 219 225 229 234 238 239 242
263 264 265 263 261 261 263 262 260 259 259 258 256 257 256 254 254 254 252 249 249 250 248 244 242 239 236 236 239 239 236 236 234 224 210 206 213 217 222 229 234 239 244
269 268 268 267 264 264 265 267 267 265 263 262 259 257 256 255 255 254 251 248 248 249 250 247 238 238 241 240 238 237 239 239 236 227 212 200 206 215 217 226 224 229 232
Height
1480 1482 1484 1486 1487 1489 1490 1491 1493 1494 1494 1495 1496 1497 1497 1498 1498 1498 1499 1499 1499 1499 1499 1499 1499 1499 1499 1499 1498 1498 1498 1497 1495 1493 1494 1494 1493 1493 1492 1491 1490 1489 1488
1477 1479 1481 1483 1484 1485 1487 1488 1489 1490 1491 1491 1492 1493 1493 1494 1494 1494 1494 1495 1495 1495 1495 1495 1494 1494 1494 1494 1494 1493 1493 1492 1491 1488 1488 1488 1488 1488 1486 1486 1485 1484 1482
1475 1476 1478 1479 1480 1482 1483 1484 1485 1486 1487 1488 1488 1488 1489 1489 1490 1490 1490 1490 1490 1490 1490 1490 1490 1490 1489 1489 1488 1488 1487 1487 1486 1484 1482 1482 1482 1482 1481 1480 1479 1478 1477
1471 1473 1474 1475 1477 1478 1479 1480 1481 1482 1483 1483 1483 1484 1484 1485 1485 1485 1485 1485 1485 1485 1485 1485 1485 1484 1484 1483 1483 1482 1482 1481 1480 1479 1477 1477 1476 1476 1475 1474 1473 1472 1471
1468 1469 1470 1472 1473 1474 1475 1476 1477 1477 1478 1479 1479 1479 1480 1480 1480 1480 1480 1480 1480 1479 1479 1479 1479 1479 1478 1478 1477 1477 1476 1475 1474 1473 1472 1471 1470 1470 1469 1468 1467 1466 1464
1464 1465 1467 1468 1469 1470 1471 1471 1472 1473 1473 1474 1474 1475 1475 1475 1476 1476 1475 1475 1474 1474 1474 1474 1473 1473 1472 1472 1472 1471 1471 1470 1469 1468 1466 1465 1464 1465 1464 1463 1462 1460 1458
1461 1462 1463 1463 1464 1465 1466 1466 1467 1468 1468 1468 1469 1469 1469 1470 1470 1470 1470 1469 1469 1468 1468 1468 1467 1467 1466 1466 1465 1465 1464 1464 1464 1463 1461 1460 1459 1459 1459 1457 1456 1455 1453
1457 1458 1458 1459 1460 1460 1461 1462 1462 1463 1463 1463 1463 1464 1464 1464 1464 1464 1464 1463 1463 1462 1462 1461 1461 1460 1460 1459 1459 1458 1457 1457 1457 1456 1455 1455 1454 1454 1453 1452 1451 1449 1447
1453 1454 1454 1455 1455 1455 1456 1457 1457 1458 1458 1458 1458 1458 1458 1458 1459 1459 1458 1457 1457 1456 1456 1455 1455 1454 1454 1453 1453 1451 1451 1450 1451 1450 1450 1449 1448 1448 1448 1446 1444 1443 1440
1449 1450 1450 1450 1451 1451 1451 1452 1452 1452 1452 1452 1452 1453 1453 1452 1453 1453 1452 1451 1450 1450 1449 1449 1448 1448 1447 1447 1447 1445 1444 1443 1444 1443 1443 1443 1442 1442 1441 1440 1439 1438 1435
1445 1445 1445 1446 1446 1446 1446 1447 1447 1447 1447 1447 1447 1447 1447 1446 1446 1446 1446 1445 1444 1443 1443 1442 1442 1442 1441 1441 1440 1439 1438 1438 1437 1437 1436 1436 1435 1435 1434 1434 1433 1433 1431
1440 1440 1440 1441 1441 1441 1441 1442 1442 1442 1442 1441 1441 1440 1440 1440 1440 1440 1440 1439 1439 1438 1436 1436 1436 1435 1435 1434 1433 1433 1432 1432 1431 1430 1430 1429 1429 1429 1428 1428 1427 1426 1425
1436 1435 1436 1436 1436 1436 1436 1436 1436 1436 1436 1435 1435 1434 1434 1434 1434 1434 1434 1433 1433 1432 1431 1430 1430 1429 1428 1427 1427 1426 1426 1425 1424 1424 1423 1423 1423 1423 1422 1421 1420 1420 1419
1431 1430 1430 1430 1430 1431 1431 1431 1431 1430 1430 1429 1429 1428 1427 1427 1428 1428 1427 1427 1427 1426 1425 1424 1424 1423 1422 1421 1420 1420 1419 1419 1419 1418 1417 1417 1417 1416 1416 1415 1414 1413 1412
1426 1425 1425 1425 1425 1425 1425 1425 1424 1424 1424 1423 1423 1422 1422 1421 1421 1422 1421 1420 1420 1420 1419 1419 1418 1417 1416 1415 1414 1413 1413 1413 1413 1413 1412 1412 1411 1411 1410 1410 1409 1407 1406
1421 1420 1420 1420 1419 1419 1419 1418 1418 1418 1418 1417 1417 1417 1416 1416 1415 1415 1415 1415 1414 1414 1414 1412 1412 1411 1410 1409 1408 1408 1407 1407 1407 1407 1407 1406 1406 1405 1404 1404 1403 1402 1401
1416 1415 1415 1414 1414 1413 1413 1412 1411 1411 1411 1410 1410 1410 1410 1410 1409 1409 1409 1409 1409 1409 1408 1407 1406 1406 1405 1404 1403 1403 1402 1402 1402 1402 1401 1401 1400 1400 1399 1398 1397 1397 1395
1411 1411 1410 1409 1408 1408 1407 1407 1406 1405 1404 1403 1404 1404 1404 1404 1404 1403 1403 1403 1402 1402 1402 1401 1401 1400 1400 1399 1398 1397 1397 1397 1396 1396 1396 1395 1395 1394 1394 1393 1392 1391 1390
1406 1405 1405 1404 1403 1403 1402 1401 1400 1399 1398 1398 1397 1397 1398 1398 1397 1397 1397 1397 1396 1396 1396 1395 1395 1395 1394 1394 1393 1392 1392 1391 1391 1391 1390 1390 1390 1389 1389 1388 1387 1387 1386
1401 1401 1400 1399 1398 1397 1396 1395 1394 1394 1393 1392 1392 1392 1392 1392 1391 1391 1391 1391 1390 1390 1390 1389 1389 1389 1388 1388 1387 1387 1386 1386 1385 1385 1385 1385 1385 1384 1384 1383 1383 1382 1381
1396 1395 1395 1394 1393 1392 1391 1390 1389 1388 1388 1387 1387 1387 1387 1386 1385 1385 1385 1385 1385 1384 1384 1383 1383 1383 1383 1382 1382 1381 1381 1380 1380 1380 1380 1380 1380 1379 1379 1379 1378 1377 1376
1391 1390 1390 1389 1388 1387 1386 1385 1384 1383 1382 1382 1381 1381 1381 1381 1380 1380 1379 1379 1379 1379 1378 1378 1377 1377 1377 1376 1376 1376 1375 1375 1375 1375 1375 1375 1375 1374 1374 1374 1373 1373 1372
1386 1385 1384 1383 1382 1381 1380 1379 1379 1378 1377 1376 1376 1375 1375 1375 1374 1374 1374 1373 1373 1373 1372 1372 1371 1371 1371 1371 1370 1370 1370 1370 1370 1370 1370 1370 1370 1370 1369 1369 1368 1368 1368
1381 1380 1379 1378 1377 1376 1375 1374 1374 1373 1372 1371 1371 1370 1370 1369 1369 1368 1368 1367 1367 1367 1367 1366 1366 1366 1365 1365 1365 1365 1365 1365 1365 1365 1365 1365 1365 1365 1365 1364 1364 1364 1363
1376 1375 1374 1373 1372 1371 1370 1369 1368 1368 1367 1366 1365 1364 1364 1363 1363 1362 1362 1362 1361 1361 1361 1361 1360 1360 1360 1360 1360 1360 1360 1360 1360 1360 1361 1361 1361 1360 1360 1360 1360 1359 1359
1372 1370 1369 1368 1367 1366 1365 1364 1363 1362 1361 1360 1360 1359 1358 1358 1357 1357 1356 1356 1356 1355 1355 1355 1355 1355 1355 1355 1355 1355 1355 1355 1356 1356 1356 1356 1356 1356 1356 1356 1356 1356 1355